IBE32LP LIRF-EFHK

Flight info

Callsign IBE32LP
Flight time 3h 0m
Altitude 40000
Route SOSIV5AXSOVAN1E/25 SOVAN DCT AMTEL DCT OBEDI/N0481F410 DCT RASAN DCT PENOR DCT ALAMI DCT OKEVU DCT EVADI Y370 DIVAM
Aircraft A359/H-SDE2E3GHIJ3J4J5LM1ORWXY/LB1D1

Departure

Time 2026-05-06 17:02
Airport Rome–Fiumicino Leonardo da Vinci International Airport (LIRF)

Arrival

Time 2026-05-06 20:02
Airport Helsinki Vantaa Airport (EFHK)
Time Latitude Longitude Altitude Speed Heading
2026-05-06 16:08 41.79821 12.24565 19 ft 0 kts 132°
2026-05-06 16:48 41.79820 12.24565 19 ft 1 kts 138°
2026-05-06 16:48 41.79814 12.24559 19 ft 3 kts 205°
2026-05-06 16:49 41.79804 12.24544 22 ft 0 kts 229°
2026-05-06 16:50 41.79784 12.24514 23 ft 4 kts 224°
2026-05-06 16:51 41.79782 12.24507 24 ft 1 kts 243°
2026-05-06 16:51 41.79783 12.24502 24 ft 0 kts 262°
2026-05-06 16:51 41.79791 12.24479 24 ft 7 kts 301°
2026-05-06 16:51 41.79794 12.24477 24 ft 0 kts 313°
2026-05-06 16:52 41.79798 12.24473 25 ft 3 kts 323°
2026-05-06 16:52 41.79824 12.24477 23 ft 2 kts 25°
2026-05-06 16:52 41.79891 12.24509 21 ft 19 kts 33°
2026-05-06 16:52 41.79947 12.24616 21 ft 18 kts 68°
2026-05-06 16:53 41.79968 12.24686 24 ft 7 kts 69°
2026-05-06 16:53 41.79986 12.24744 24 ft 4 kts 66°
2026-05-06 16:53 41.80004 12.24772 24 ft 9 kts 35°
2026-05-06 16:53 41.80075 12.24782 21 ft 9 kts 353°
2026-05-06 16:54 41.80190 12.24781 20 ft 17 kts
2026-05-06 16:54 41.80216 12.24864 24 ft 3 kts 96°
2026-05-06 16:54 41.80212 12.24909 26 ft 11 kts 97°
2026-05-06 16:54 41.80213 12.25025 26 ft 1 kts 64°
2026-05-06 16:55 41.80225 12.25101 25 ft 16 kts 79°
2026-05-06 16:55 41.80247 12.25227 26 ft 0 kts 75°
2026-05-06 16:55 41.80250 12.25238 28 ft 6 kts 72°
2026-05-06 16:55 41.80284 12.25357 25 ft 21 kts 70°
2026-05-06 16:56 41.80351 12.25606 24 ft 34 kts 70°
2026-05-06 16:56 41.80441 12.25933 21 ft 39 kts 70°
2026-05-06 16:56 41.80537 12.26280 22 ft 37 kts 70°
2026-05-06 16:56 41.80586 12.26456 24 ft 19 kts 70°
2026-05-06 16:57 41.80637 12.26644 21 ft 24 kts 70°
2026-05-06 16:57 41.80698 12.26866 17 ft 8 kts 69°
2026-05-06 16:57 41.80718 12.26935 15 ft 10 kts 69°
2026-05-06 16:57 41.80732 12.26980 15 ft 0 kts 66°
2026-05-06 16:58 41.80738 12.26992 15 ft 4 kts 60°
2026-05-06 16:58 41.80774 12.27029 15 ft 9 kts 20°
2026-05-06 16:58 41.80834 12.27024 15 ft 0 kts 341°
2026-05-06 16:59 41.80836 12.27023 15 ft 1 kts 341°
2026-05-06 16:59 41.80861 12.27012 15 ft 10 kts 341°
2026-05-06 17:00 41.80903 12.26992 15 ft 5 kts 340°
2026-05-06 17:00 41.80936 12.26967 17 ft 6 kts 318°
2026-05-06 17:00 41.80948 12.26909 16 ft 8 kts 266°
2026-05-06 17:00 41.80944 12.26886 16 ft 0 kts 254°
2026-05-06 17:01 41.80942 12.26880 16 ft 0 kts 250°
2026-05-06 17:01 41.80928 12.26827 17 ft 33 kts 250°
2026-05-06 17:02 41.80752 12.26182 28 ft 113 kts 250°
2026-05-06 17:02 41.80410 12.24880 41 ft 178 kts 248°
2026-05-06 17:02 41.79990 12.23194 473 ft 204 kts 249°
2026-05-06 17:02 41.79600 12.21317 1410 ft 204 kts 251°
2026-05-06 17:03 41.79362 12.19448 2170 ft 208 kts 269°
2026-05-06 17:03 41.79928 12.17660 2999 ft 210 kts 301°
2026-05-06 17:03 41.80826 12.16134 3726 ft 213 kts 305°
2026-05-06 17:03 41.81772 12.14588 4349 ft 217 kts 305°
2026-05-06 17:04 41.82732 12.12999 5038 ft 218 kts 305°
2026-05-06 17:04 41.83687 12.11425 5731 ft 220 kts 307°
2026-05-06 17:04 41.84923 12.10151 6373 ft 229 kts 332°
2026-05-06 17:04 41.86498 12.09429 6726 ft 249 kts 342°
2026-05-06 17:05 41.88236 12.08816 7064 ft 267 kts 343°
2026-05-06 17:05 41.90076 12.08171 7531 ft 278 kts 342°
2026-05-06 17:05 41.91948 12.07499 8132 ft 284 kts 342°
2026-05-06 17:05 41.93870 12.06796 8781 ft 289 kts 342°
2026-05-06 17:06 41.95840 12.06161 9439 ft 295 kts 348°
2026-05-06 17:06 41.97901 12.05865 10120 ft 300 kts 353°
2026-05-06 17:06 42.00037 12.05666 10488 ft 315 kts 353°
2026-05-06 17:06 42.02280 12.05459 10797 ft 330 kts 353°
2026-05-06 17:07 42.04624 12.05235 11134 ft 344 kts 353°
2026-05-06 17:07 42.07047 12.05003 11589 ft 352 kts 353°
2026-05-06 17:07 42.09514 12.04771 12085 ft 358 kts 353°
2026-05-06 17:07 42.12010 12.04531 12632 ft 362 kts 353°
2026-05-06 17:08 42.14545 12.04284 13217 ft 365 kts 353°
2026-05-06 17:08 42.17069 12.04035 13759 ft 370 kts 353°
2026-05-06 17:08 42.19632 12.03626 14248 ft 373 kts 349°
2026-05-06 17:08 42.22224 12.03059 14750 ft 376 kts 348°
2026-05-06 17:09 42.24795 12.02474 15236 ft 380 kts 348°
2026-05-06 17:09 42.27423 12.01876 15724 ft 384 kts 348°
2026-05-06 17:09 42.30060 12.01278 16215 ft 387 kts 348°
2026-05-06 17:09 42.32738 12.00672 16683 ft 391 kts 348°
2026-05-06 17:10 42.35431 12.00063 17161 ft 395 kts 347°
2026-05-06 17:10 42.38148 11.99453 17635 ft 399 kts 348°
2026-05-06 17:10 42.40903 11.98834 18129 ft 402 kts 347°
2026-05-06 17:10 42.43674 11.98208 18574 ft 405 kts 347°
2026-05-06 17:11 42.46455 11.97579 19001 ft 407 kts 347°
2026-05-06 17:11 42.49242 11.96949 19468 ft 408 kts 347°
2026-05-06 17:11 42.52062 11.96311 19918 ft 410 kts 346°
2026-05-06 17:11 42.53928 11.95888 20202 ft 411 kts 346°
2026-05-06 17:12 42.56753 11.95248 20622 ft 413 kts 346°
2026-05-06 17:12 42.60530 11.94392 21222 ft 416 kts 346°
2026-05-06 17:12 42.62454 11.93955 21503 ft 417 kts 345°
2026-05-06 17:12 42.65328 11.93302 21919 ft 419 kts 345°
2026-05-06 17:13 42.68211 11.92647 22345 ft 421 kts 345°
2026-05-06 17:13 42.71104 11.91989 22772 ft 423 kts 345°
2026-05-06 17:13 42.74021 11.91324 23165 ft 425 kts 345°
2026-05-06 17:13 42.76927 11.90662 23544 ft 427 kts 345°
2026-05-06 17:14 42.79859 11.89993 23881 ft 430 kts 344°
2026-05-06 17:14 42.82779 11.89135 24144 ft 429 kts 337°
2026-05-06 17:14 42.85557 11.87675 24409 ft 426 kts 329°
2026-05-06 17:14 42.88221 11.85912 24777 ft 426 kts 326°
2026-05-06 17:15 42.90847 11.84010 25123 ft 427 kts 324°
2026-05-06 17:15 42.93444 11.82056 25454 ft 428 kts 324°
2026-05-06 17:15 42.96073 11.80064 25809 ft 431 kts 324°
2026-05-06 17:15 42.98713 11.78075 26161 ft 434 kts 324°
2026-05-06 17:16 43.01362 11.76098 26530 ft 437 kts 324°
2026-05-06 17:16 43.04044 11.74112 26939 ft 440 kts 324°
2026-05-06 17:16 43.06730 11.72132 27313 ft 443 kts 324°
2026-05-06 17:16 43.09451 11.70130 27750 ft 446 kts 324°
2026-05-06 17:17 43.12192 11.68115 28171 ft 448 kts 324°
2026-05-06 17:17 43.14949 11.66087 28566 ft 453 kts 324°
2026-05-06 17:17 43.17863 11.64303 28971 ft 465 kts 333°
2026-05-06 17:17 43.21026 11.63112 29438 ft 476 kts 343°
2026-05-06 17:18 43.24357 11.62683 29905 ft 489 kts 354°
2026-05-06 17:18 43.27773 11.63141 30308 ft 499 kts
2026-05-06 17:18 43.31177 11.64228 30710 ft 505 kts 10°
2026-05-06 17:18 43.34596 11.65518 31083 ft 509 kts 12°
2026-05-06 17:19 43.37999 11.66893 31494 ft 512 kts 13°
2026-05-06 17:19 43.41388 11.68286 31854 ft 515 kts 12°
2026-05-06 17:19 43.44864 11.69707 32308 ft 516 kts 12°
2026-05-06 17:19 43.48273 11.71083 32759 ft 517 kts 12°
2026-05-06 17:20 43.51730 11.72461 33100 ft 520 kts 12°
2026-05-06 17:20 43.55228 11.73841 33445 ft 523 kts 12°
2026-05-06 17:20 43.58733 11.75219 33800 ft 525 kts 12°
2026-05-06 17:20 43.62260 11.76607 34150 ft 526 kts 12°
2026-05-06 17:21 43.65779 11.77993 34484 ft 527 kts 12°
2026-05-06 17:21 43.69330 11.79393 34756 ft 529 kts 12°
2026-05-06 17:21 43.72850 11.80784 35172 ft 528 kts 12°
2026-05-06 17:21 43.76383 11.82184 35634 ft 526 kts 12°
2026-05-06 17:22 43.79918 11.83589 36110 ft 525 kts 11°
2026-05-06 17:22 43.83406 11.84975 36454 ft 526 kts 12°
2026-05-06 17:22 43.86952 11.86383 36708 ft 529 kts 12°
2026-05-06 17:22 43.90448 11.87774 37102 ft 528 kts 11°
2026-05-06 17:23 43.93972 11.89179 37536 ft 526 kts 11°
2026-05-06 17:23 43.97511 11.90592 37886 ft 526 kts 11°
2026-05-06 17:23 44.01032 11.91998 38273 ft 526 kts 11°
2026-05-06 17:23 44.04553 11.93405 38569 ft 527 kts 11°
2026-05-06 17:24 44.08085 11.94818 38858 ft 526 kts 11°
2026-05-06 17:24 44.11572 11.96217 39199 ft 523 kts 12°
2026-05-06 17:24 44.15078 11.97625 39532 ft 521 kts 12°
2026-05-06 17:24 44.18577 11.99034 39817 ft 520 kts 12°
2026-05-06 17:25 44.21998 12.00410 40080 ft 519 kts 12°
2026-05-06 17:25 44.25473 12.01810 40347 ft 518 kts 12°
2026-05-06 17:25 44.28919 12.03200 40616 ft 517 kts 12°
2026-05-06 17:25 44.32368 12.04592 40864 ft 515 kts 12°
2026-05-06 17:26 44.35791 12.05976 41241 ft 511 kts 12°
2026-05-06 17:26 44.39215 12.07363 41574 ft 508 kts 12°
2026-05-06 17:26 44.42630 12.08748 41796 ft 508 kts 12°
2026-05-06 17:27 44.49462 12.11517 41892 ft 514 kts 13°
2026-05-06 17:27 44.56289 12.14294 41888 ft 514 kts 13°
2026-05-06 17:28 44.63151 12.17096 41884 ft 514 kts 13°
2026-05-06 17:28 44.70067 12.19926 41879 ft 514 kts 13°
2026-05-06 17:29 44.76913 12.22734 41884 ft 515 kts 13°
2026-05-06 17:29 44.83804 12.25566 41878 ft 515 kts 13°
2026-05-06 17:30 44.90674 12.28398 41876 ft 515 kts 13°
2026-05-06 17:30 44.97543 12.31236 41873 ft 515 kts 13°
2026-05-06 17:31 45.04428 12.34088 41875 ft 515 kts 13°
2026-05-06 17:31 45.11293 12.36939 41873 ft 515 kts 13°
2026-05-06 17:32 45.18146 12.39792 41872 ft 514 kts 13°
2026-05-06 17:32 45.25025 12.42661 41870 ft 515 kts 13°
2026-05-06 17:33 45.31909 12.45539 41879 ft 517 kts 13°
2026-05-06 17:33 45.38781 12.48422 41882 ft 517 kts 13°
2026-05-06 17:34 45.45719 12.51341 41881 ft 517 kts 13°
2026-05-06 17:34 45.52621 12.54251 41881 ft 517 kts 14°
2026-05-06 17:35 45.59479 12.57150 41880 ft 517 kts 14°
2026-05-06 17:35 45.66379 12.60074 41879 ft 517 kts 14°
2026-05-06 17:36 45.76717 12.64469 41892 ft 517 kts 14°
2026-05-06 17:36 45.83594 12.67402 41898 ft 517 kts 14°
2026-05-06 17:37 45.90486 12.70348 41907 ft 517 kts 14°
2026-05-06 17:37 45.97403 12.73314 41910 ft 517 kts 14°
2026-05-06 17:38 46.04263 12.76262 41911 ft 517 kts 14°
2026-05-06 17:38 46.11171 12.79240 41888 ft 517 kts 14°
2026-05-06 17:39 46.18051 12.82212 41888 ft 517 kts 14°
2026-05-06 17:39 46.24959 12.85205 41902 ft 517 kts 14°
2026-05-06 17:40 46.31845 12.88195 41890 ft 517 kts 14°
2026-05-06 17:40 46.38729 12.91193 41891 ft 517 kts 14°
2026-05-06 17:41 46.45636 12.94209 41898 ft 517 kts 14°
2026-05-06 17:41 46.52523 12.97223 41891 ft 517 kts 14°
2026-05-06 17:42 46.59400 13.00242 41888 ft 517 kts 14°
2026-05-06 17:42 46.66261 13.03262 41892 ft 517 kts 14°
2026-05-06 17:43 46.73153 13.06303 41865 ft 517 kts 14°
2026-05-06 17:43 46.80096 13.09375 41853 ft 519 kts 14°
2026-05-06 17:44 46.86956 13.12419 41861 ft 519 kts 14°
2026-05-06 17:44 46.93889 13.15501 41850 ft 519 kts 14°
2026-05-06 17:45 47.00801 13.18584 41837 ft 520 kts 14°
2026-05-06 17:45 47.07722 13.21680 41820 ft 519 kts 14°
2026-05-06 17:46 47.14622 13.24776 41812 ft 517 kts 14°
2026-05-06 17:46 47.21469 13.27855 41793 ft 517 kts 14°
2026-05-06 17:47 47.28347 13.30955 41782 ft 516 kts 14°
2026-05-06 17:47 47.35196 13.34054 41778 ft 514 kts 14°
2026-05-06 17:48 47.42053 13.37108 41768 ft 514 kts 14°
2026-05-06 17:48 47.48877 13.40127 41756 ft 513 kts 14°
2026-05-06 17:49 47.55724 13.43175 41749 ft 513 kts 14°
2026-05-06 17:49 47.62539 13.46226 41737 ft 513 kts 14°
2026-05-06 17:50 47.69394 13.49304 41728 ft 514 kts 14°
2026-05-06 17:50 47.76257 13.52395 41721 ft 515 kts 14°
2026-05-06 17:51 47.79654 13.53928 41478 ft 515 kts 14°
2026-05-06 17:51 47.83089 13.55480 41243 ft 514 kts 14°
2026-05-06 17:51 47.86561 13.57051 40996 ft 515 kts 14°
2026-05-06 17:51 47.89990 13.58605 40765 ft 517 kts 14°
2026-05-06 17:52 47.96834 13.61713 40694 ft 519 kts 14°
2026-05-06 17:52 48.03763 13.64867 40685 ft 519 kts 15°
2026-05-06 17:53 48.10669 13.68021 40680 ft 519 kts 15°
2026-05-06 17:53 48.17574 13.71183 40698 ft 519 kts 15°
2026-05-06 17:54 48.24445 13.74338 40699 ft 519 kts 15°
2026-05-06 17:54 48.31351 13.77518 40686 ft 520 kts 15°
2026-05-06 17:55 48.38301 13.80727 40687 ft 520 kts 15°
2026-05-06 17:55 48.45200 13.83922 40689 ft 520 kts 15°
2026-05-06 17:56 48.52114 13.87134 40690 ft 520 kts 15°
2026-05-06 17:56 48.59021 13.90350 40687 ft 520 kts 15°
2026-05-06 17:57 48.65900 13.93563 40688 ft 519 kts 15°
2026-05-06 17:57 48.72829 13.96809 40695 ft 519 kts 15°
2026-05-06 17:58 48.79671 14.00024 40703 ft 519 kts 15°
2026-05-06 17:58 48.86544 14.03261 40704 ft 518 kts 15°
2026-05-06 17:59 48.93437 14.06518 40706 ft 518 kts 15°
2026-05-06 17:59 49.00298 14.09769 40708 ft 517 kts 15°
2026-05-06 18:00 49.06019 14.12488 40708 ft 517 kts 15°
2026-05-06 18:00 49.12935 14.15782 40714 ft 517 kts 15°
2026-05-06 18:01 49.19789 14.19057 40709 ft 517 kts 15°
2026-05-06 18:01 49.26553 14.22301 40702 ft 500 kts 15°
2026-05-06 18:02 49.29781 14.23856 40703 ft 487 kts 15°
2026-05-06 18:02 49.32992 14.25403 40712 ft 482 kts 15°
2026-05-06 18:02 49.39399 14.28486 40713 ft 481 kts 15°
2026-05-06 18:03 49.45764 14.31556 40719 ft 481 kts 15°
2026-05-06 18:03 49.52143 14.34645 40718 ft 481 kts 15°
2026-05-06 18:04 49.58540 14.37752 40727 ft 481 kts 15°
2026-05-06 18:04 49.64939 14.40869 40730 ft 482 kts 15°
2026-05-06 18:05 49.71313 14.43983 40732 ft 482 kts 15°
2026-05-06 18:05 49.77716 14.47119 40733 ft 482 kts 15°
2026-05-06 18:06 49.84127 14.50268 40741 ft 483 kts 15°
2026-05-06 18:06 49.90544 14.53428 40744 ft 483 kts 15°
2026-05-06 18:07 49.96915 14.56575 40762 ft 483 kts 15°
2026-05-06 18:07 50.03334 14.59754 40749 ft 485 kts 15°
2026-05-06 18:08 50.09756 14.62944 40746 ft 485 kts 15°
2026-05-06 18:08 50.16199 14.66154 40748 ft 485 kts 15°
2026-05-06 18:09 50.22633 14.69368 40750 ft 485 kts 15°
2026-05-06 18:09 50.29068 14.72591 40751 ft 485 kts 15°
2026-05-06 18:10 50.35491 14.75818 40748 ft 485 kts 15°
2026-05-06 18:10 50.41927 14.79061 40754 ft 485 kts 15°
2026-05-06 18:11 50.48321 14.82291 40741 ft 486 kts 15°
2026-05-06 18:11 50.54770 14.85558 40753 ft 486 kts 16°
2026-05-06 18:12 50.61202 14.88827 40759 ft 486 kts 16°
2026-05-06 18:12 50.67611 14.92094 40772 ft 486 kts 15°
2026-05-06 18:13 50.74063 14.95391 40767 ft 486 kts 15°
2026-05-06 18:13 50.80502 14.98690 40760 ft 486 kts 15°
2026-05-06 18:14 50.86936 15.01998 40765 ft 486 kts 15°
2026-05-06 18:14 50.93357 15.05308 40772 ft 487 kts 15°
2026-05-06 18:15 50.99797 15.08638 40771 ft 487 kts 15°
2026-05-06 18:15 51.06255 15.11739 40775 ft 486 kts 12°
2026-05-06 18:16 51.12830 15.14255 40774 ft 485 kts 10°
2026-05-06 18:16 51.19386 15.16735 40773 ft 485 kts 11°
2026-05-06 18:17 51.25943 15.19326 40777 ft 485 kts 11°
2026-05-06 18:17 51.32500 15.21979 40786 ft 485 kts 11°
2026-05-06 18:18 51.38991 15.24622 40789 ft 484 kts 11°
2026-05-06 18:18 51.45556 15.27299 40786 ft 484 kts 11°
2026-05-06 18:19 51.52054 15.29953 40787 ft 484 kts 11°
2026-05-06 18:19 51.58575 15.32625 40789 ft 483 kts 11°
2026-05-06 18:20 51.65080 15.35297 40793 ft 483 kts 11°
2026-05-06 18:20 51.71593 15.37981 40794 ft 483 kts 11°
2026-05-06 18:21 51.78122 15.40679 40801 ft 483 kts 11°
2026-05-06 18:21 51.84634 15.43379 40802 ft 482 kts 11°
2026-05-06 18:22 51.91120 15.46075 40801 ft 482 kts 12°
2026-05-06 18:22 51.97583 15.48770 40805 ft 482 kts 12°
2026-05-06 18:23 52.04058 15.51479 40821 ft 481 kts 12°
2026-05-06 18:23 52.10557 15.54205 40825 ft 481 kts 12°
2026-05-06 18:24 52.17053 15.56938 40826 ft 481 kts 12°
2026-05-06 18:24 52.23527 15.59670 40822 ft 481 kts 12°
2026-05-06 18:25 52.30010 15.62415 40820 ft 480 kts 12°
2026-05-06 18:25 52.36478 15.65162 40819 ft 480 kts 12°
2026-05-06 18:26 52.42953 15.67919 40823 ft 480 kts 12°
2026-05-06 18:26 52.49385 15.70667 40824 ft 480 kts 12°
2026-05-06 18:27 52.55859 15.73441 40822 ft 480 kts 12°
2026-05-06 18:27 52.62341 15.76227 40830 ft 480 kts 12°
2026-05-06 18:28 52.68785 15.79005 40840 ft 480 kts 12°
2026-05-06 18:28 52.75253 15.81801 40829 ft 481 kts 12°
2026-05-06 18:29 52.81730 15.84611 40829 ft 481 kts 12°
2026-05-06 18:29 52.88205 15.87428 40831 ft 481 kts 12°
2026-05-06 18:30 52.94674 15.90252 40837 ft 481 kts 12°
2026-05-06 18:30 53.01190 15.93105 40837 ft 483 kts 12°
2026-05-06 18:31 53.07658 15.95944 40843 ft 483 kts 12°
2026-05-06 18:31 53.14124 15.98792 40837 ft 483 kts 12°
2026-05-06 18:32 53.15453 15.99379 40837 ft 483 kts 12°
2026-05-06 18:32 53.19500 16.01169 40847 ft 483 kts 12°
2026-05-06 18:33 53.25993 16.04046 40843 ft 483 kts 12°
2026-05-06 18:33 53.32459 16.06920 40851 ft 483 kts 12°
2026-05-06 18:34 53.38951 16.09814 40848 ft 483 kts 12°
2026-05-06 18:34 53.45455 16.12724 40851 ft 483 kts 12°
2026-05-06 18:35 53.51949 16.15638 40854 ft 483 kts 12°
2026-05-06 18:35 53.58446 16.18562 40856 ft 483 kts 12°
2026-05-06 18:36 53.64948 16.21498 40869 ft 483 kts 12°
2026-05-06 18:36 53.71397 16.24420 40858 ft 482 kts 12°
2026-05-06 18:37 53.76794 16.26872 40871 ft 481 kts 12°
2026-05-06 18:37 53.84346 16.30313 40870 ft 481 kts 12°
2026-05-06 18:38 53.90834 16.33280 40882 ft 481 kts 12°
2026-05-06 18:38 53.97297 16.36246 40872 ft 481 kts 12°
2026-05-06 18:39 54.03736 16.39209 40873 ft 481 kts 12°
2026-05-06 18:40 54.13419 16.43685 40877 ft 481 kts 12°
2026-05-06 18:40 54.19885 16.46685 40879 ft 481 kts 12°
2026-05-06 18:41 54.26338 16.49690 40884 ft 481 kts 12°
2026-05-06 18:41 54.32798 16.52706 40885 ft 481 kts 12°
2026-05-06 18:42 54.39235 16.55722 40900 ft 481 kts 12°
2026-05-06 18:42 54.45692 16.58758 40898 ft 481 kts 12°
2026-05-06 18:43 54.52135 16.61797 40902 ft 481 kts 12°
2026-05-06 18:43 54.58583 16.64848 40900 ft 480 kts 12°
2026-05-06 18:44 54.65039 16.67913 40910 ft 480 kts 12°
2026-05-06 18:44 54.71453 16.70968 40896 ft 480 kts 12°
2026-05-06 18:45 54.76847 16.73545 40907 ft 480 kts 12°
2026-05-06 18:45 54.84337 16.77135 40907 ft 480 kts 12°
2026-05-06 18:46 54.89734 16.79731 40912 ft 480 kts 12°
2026-05-06 18:46 54.96132 16.82817 40913 ft 480 kts 12°
2026-05-06 18:47 55.02577 16.85936 40914 ft 480 kts 12°
2026-05-06 18:47 55.09030 16.89070 40911 ft 480 kts 12°
2026-05-06 18:48 55.15468 16.92207 40926 ft 480 kts 12°
2026-05-06 18:48 55.21912 16.95357 40921 ft 480 kts 12°
2026-05-06 18:49 55.28351 16.98516 40924 ft 481 kts 12°
2026-05-06 18:49 55.34768 17.01674 40929 ft 481 kts 12°
2026-05-06 18:50 55.41214 17.04858 40936 ft 481 kts 12°
2026-05-06 18:50 55.47655 17.08049 40933 ft 480 kts 12°
2026-05-06 18:51 55.54089 17.11248 40938 ft 480 kts 12°
2026-05-06 18:51 55.60547 17.14470 40936 ft 481 kts 13°
2026-05-06 18:52 55.66689 17.18976 40942 ft 485 kts 25°
2026-05-06 18:52 55.72634 17.24695 40935 ft 485 kts 27°
2026-05-06 18:53 55.78510 17.30594 40944 ft 485 kts 27°
2026-05-06 18:53 55.84409 17.36533 40950 ft 495 kts 27°
2026-05-06 18:54 55.90510 17.42659 40948 ft 505 kts 27°
2026-05-06 18:54 55.96575 17.48762 40942 ft 503 kts 27°
2026-05-06 18:55 56.02680 17.54927 40945 ft 502 kts 27°
2026-05-06 18:55 56.08756 17.61083 40948 ft 502 kts 27°
2026-05-06 18:56 56.14835 17.67264 40937 ft 502 kts 27°
2026-05-06 18:56 56.20877 17.73431 40939 ft 502 kts 27°
2026-05-06 18:57 56.26977 17.79679 40942 ft 502 kts 27°
2026-05-06 18:57 56.33054 17.85929 40945 ft 502 kts 27°
2026-05-06 18:58 56.39075 17.92142 40954 ft 502 kts 27°
2026-05-06 18:58 56.45144 17.98428 40954 ft 503 kts 28°
2026-05-06 18:59 56.51215 18.04740 40954 ft 503 kts 28°
2026-05-06 18:59 56.57293 18.11083 40955 ft 503 kts 28°
2026-05-06 19:00 56.63328 18.17405 40956 ft 503 kts 28°
2026-05-06 19:00 56.69394 18.23783 40956 ft 504 kts 28°
2026-05-06 19:01 56.75464 18.30189 40960 ft 504 kts 28°
2026-05-06 19:01 56.81533 18.36618 40960 ft 504 kts 28°
2026-05-06 19:02 56.87563 18.43032 40963 ft 504 kts 28°
2026-05-06 19:02 56.93604 18.49480 40963 ft 504 kts 28°
2026-05-06 19:03 56.99661 18.55969 40960 ft 504 kts 28°
2026-05-06 19:03 57.05722 18.62487 40968 ft 504 kts 28°
2026-05-06 19:04 57.11768 18.69016 40981 ft 504 kts 28°
2026-05-06 19:04 57.17821 18.75576 40977 ft 504 kts 28°
2026-05-06 19:05 57.23821 18.82104 40980 ft 504 kts 28°
2026-05-06 19:05 57.29874 18.88714 40984 ft 507 kts 28°
2026-05-06 19:06 57.36015 18.95442 40979 ft 518 kts 28°
2026-05-06 19:06 57.42244 19.02299 40980 ft 521 kts 28°
2026-05-06 19:07 57.48476 19.09189 40977 ft 520 kts 28°
2026-05-06 19:07 57.54700 19.16097 40976 ft 520 kts 28°
2026-05-06 19:08 57.60868 19.22970 40983 ft 520 kts 28°
2026-05-06 19:08 57.67090 19.29930 40987 ft 520 kts 29°
2026-05-06 19:09 57.73291 19.36894 40987 ft 520 kts 29°
2026-05-06 19:09 57.79494 19.43888 40991 ft 520 kts 29°
2026-05-06 19:10 57.85714 19.50931 40992 ft 521 kts 29°
2026-05-06 19:10 57.91909 19.57974 40993 ft 521 kts 29°
2026-05-06 19:11 57.98111 19.65053 40993 ft 521 kts 29°
2026-05-06 19:11 58.04310 19.72159 40993 ft 521 kts 29°
2026-05-06 19:12 58.10502 19.79286 40996 ft 521 kts 29°
2026-05-06 19:12 58.16689 19.86436 41001 ft 521 kts 29°
2026-05-06 19:13 58.22883 19.93624 40999 ft 521 kts 29°
2026-05-06 19:13 58.29075 20.00839 41004 ft 521 kts 29°
2026-05-06 19:14 58.35213 20.08021 41009 ft 522 kts 29°
2026-05-06 19:14 58.41394 20.15284 41006 ft 522 kts 29°
2026-05-06 19:15 58.47591 20.22596 41008 ft 522 kts 29°
2026-05-06 19:15 58.53738 20.29880 41012 ft 522 kts 30°
2026-05-06 19:16 58.59909 20.37222 41001 ft 523 kts 30°
2026-05-06 19:16 58.66105 20.44625 41003 ft 524 kts 30°
2026-05-06 19:17 58.72286 20.52042 41018 ft 524 kts 30°
2026-05-06 19:17 58.78479 20.59504 41021 ft 524 kts 30°
2026-05-06 19:18 58.84660 20.66985 41015 ft 524 kts 30°
2026-05-06 19:18 58.90780 20.74423 41020 ft 523 kts 30°
2026-05-06 19:19 58.96948 20.81950 41014 ft 523 kts 30°
2026-05-06 19:19 59.02961 20.89922 41016 ft 526 kts 39°
2026-05-06 19:19 59.05557 20.95005 40906 ft 529 kts 49°
2026-05-06 19:20 59.07731 21.00685 40705 ft 529 kts 55°
2026-05-06 19:20 59.09745 21.06666 40458 ft 530 kts 57°
2026-05-06 19:20 59.11675 21.12807 40222 ft 531 kts 59°
2026-05-06 19:20 59.13566 21.19006 39996 ft 531 kts 59°
2026-05-06 19:21 59.15452 21.25228 39764 ft 531 kts 59°
2026-05-06 19:21 59.17336 21.31418 39531 ft 532 kts 59°
2026-05-06 19:21 59.19231 21.37603 39317 ft 532 kts 59°
2026-05-06 19:21 59.21133 21.43785 39108 ft 532 kts 58°
2026-05-06 19:22 59.23048 21.49992 38884 ft 532 kts 58°
2026-05-06 19:22 59.24954 21.56173 38671 ft 532 kts 58°
2026-05-06 19:22 59.26841 21.62306 38403 ft 533 kts 59°
2026-05-06 19:22 59.28757 21.68551 38123 ft 534 kts 59°
2026-05-06 19:23 59.30668 21.74797 37845 ft 535 kts 59°
2026-05-06 19:23 59.32583 21.81078 37537 ft 535 kts 59°
2026-05-06 19:23 59.34481 21.87322 37280 ft 535 kts 59°
2026-05-06 19:23 59.36378 21.93585 37006 ft 535 kts 60°
2026-05-06 19:24 59.38289 21.99899 36737 ft 536 kts 60°
2026-05-06 19:24 59.40187 22.06180 36271 ft 532 kts 60°
2026-05-06 19:24 59.42049 22.12354 35583 ft 530 kts 60°
2026-05-06 19:24 59.43920 22.18577 34810 ft 531 kts 61°
2026-05-06 19:25 59.45807 22.24871 33992 ft 534 kts 62°
2026-05-06 19:25 59.47686 22.31165 33046 ft 536 kts 61°
2026-05-06 19:25 59.49573 22.37509 32190 ft 536 kts 61°
2026-05-06 19:25 59.51454 22.43847 31560 ft 531 kts 60°
2026-05-06 19:26 59.53304 22.50080 30935 ft 526 kts 60°
2026-05-06 19:26 59.55147 22.56324 30310 ft 522 kts 60°
2026-05-06 19:26 59.56938 22.62423 29637 ft 519 kts 60°
2026-05-06 19:26 59.58735 22.68555 28977 ft 514 kts 60°
2026-05-06 19:27 59.60542 22.74732 28310 ft 509 kts 60°
2026-05-06 19:27 59.62275 22.80671 27742 ft 503 kts 61°
2026-05-06 19:27 59.64013 22.86640 27110 ft 498 kts 61°
2026-05-06 19:27 59.65733 22.92566 26497 ft 494 kts 61°
2026-05-06 19:28 59.67427 22.98418 25884 ft 490 kts 61°
2026-05-06 19:28 59.69115 23.04266 25295 ft 486 kts 61°
2026-05-06 19:28 59.70790 23.10077 24662 ft 482 kts 61°
2026-05-06 19:28 59.72445 23.15826 24047 ft 479 kts 60°
2026-05-06 19:29 59.74092 23.21562 23391 ft 476 kts 61°
2026-05-06 19:29 59.75718 23.27240 22719 ft 471 kts 60°
2026-05-06 19:29 59.77303 23.32787 22107 ft 466 kts 60°
2026-05-06 19:29 59.78887 23.38342 21470 ft 460 kts 60°
2026-05-06 19:30 59.80472 23.43915 20832 ft 455 kts 60°
2026-05-06 19:30 59.82013 23.49350 20292 ft 449 kts 60°
2026-05-06 19:30 59.83506 23.54630 20124 ft 433 kts 60°
2026-05-06 19:30 59.84949 23.59739 19992 ft 417 kts 60°
2026-05-06 19:31 59.86344 23.64680 19851 ft 402 kts 60°
2026-05-06 19:31 59.87688 23.69470 19679 ft 390 kts 60°
2026-05-06 19:31 59.90264 23.78679 19075 ft 375 kts 60°
2026-05-06 19:32 59.91083 23.81675 18785 ft 374 kts 62°
2026-05-06 19:32 59.92175 23.86388 18389 ft 370 kts 66°
2026-05-06 19:32 59.93176 23.91077 17980 ft 366 kts 66°
2026-05-06 19:32 59.94163 23.95747 17584 ft 360 kts 66°
2026-05-06 19:33 59.95127 24.00306 17210 ft 355 kts 66°
2026-05-06 19:33 59.96070 24.04768 16840 ft 352 kts 66°
2026-05-06 19:33 59.97029 24.09311 16472 ft 348 kts 66°
2026-05-06 19:33 59.97953 24.13690 16104 ft 345 kts 66°
2026-05-06 19:34 59.98875 24.18073 15743 ft 341 kts 66°
2026-05-06 19:34 59.99795 24.22453 15395 ft 338 kts 66°
2026-05-06 19:34 60.00696 24.26748 15019 ft 336 kts 66°
2026-05-06 19:34 60.01596 24.31049 14649 ft 333 kts 66°
2026-05-06 19:35 60.02487 24.35314 14290 ft 330 kts 66°
2026-05-06 19:35 60.03364 24.39524 13936 ft 327 kts 66°
2026-05-06 19:35 60.04237 24.43720 13557 ft 324 kts 66°
2026-05-06 19:35 60.05095 24.47851 13186 ft 321 kts 66°
2026-05-06 19:36 60.05948 24.51968 12811 ft 318 kts 66°
2026-05-06 19:36 60.06789 24.56031 12452 ft 315 kts 66°
2026-05-06 19:36 60.07624 24.60081 12092 ft 312 kts 66°
2026-05-06 19:36 60.08448 24.64079 11748 ft 309 kts 66°
2026-05-06 19:37 60.09255 24.68003 11380 ft 307 kts 66°
2026-05-06 19:37 60.10129 24.71881 11055 ft 303 kts 59°
2026-05-06 19:37 60.11394 24.75248 10724 ft 300 kts 47°
2026-05-06 19:37 60.12784 24.78292 10387 ft 294 kts 45°
2026-05-06 19:38 60.14174 24.81276 10047 ft 289 kts 45°
2026-05-06 19:38 60.15534 24.84207 9710 ft 288 kts 46°
2026-05-06 19:38 60.16900 24.87169 9365 ft 289 kts 46°
2026-05-06 19:38 60.18260 24.90133 9027 ft 287 kts 46°
2026-05-06 19:39 60.19611 24.93085 8703 ft 285 kts 46°
2026-05-06 19:39 60.20928 24.95972 8367 ft 283 kts 46°
2026-05-06 19:39 60.22251 24.98876 8049 ft 281 kts 46°
2026-05-06 19:39 60.23573 25.01781 7710 ft 278 kts 46°
2026-05-06 19:40 60.24876 25.04646 7385 ft 276 kts 47°
2026-05-06 19:40 60.26156 25.07465 7058 ft 273 kts 47°
2026-05-06 19:40 60.27431 25.10277 6733 ft 270 kts 47°
2026-05-06 19:40 60.28694 25.13068 6421 ft 267 kts 47°
2026-05-06 19:41 60.29933 25.15812 6192 ft 257 kts 47°
2026-05-06 19:41 60.31114 25.18433 5883 ft 251 kts 47°
2026-05-06 19:41 60.32284 25.21019 5519 ft 248 kts 47°
2026-05-06 19:41 60.33432 25.23569 5316 ft 242 kts 47°
2026-05-06 19:42 60.34553 25.26068 5174 ft 239 kts 47°
2026-05-06 19:42 60.35641 25.28495 5052 ft 231 kts 47°
2026-05-06 19:42 60.36721 25.30904 4887 ft 230 kts 47°
2026-05-06 19:42 60.37798 25.33289 4670 ft 228 kts 47°
2026-05-06 19:43 60.38988 25.35355 4157 ft 224 kts 29°
2026-05-06 19:43 60.40485 25.36102 3413 ft 225 kts 357°
2026-05-06 19:43 60.41917 25.35112 2994 ft 213 kts 327°
2026-05-06 19:43 60.43018 25.33310 2748 ft 196 kts 319°
2026-05-06 19:44 60.43978 25.31516 2552 ft 179 kts 317°
2026-05-06 19:44 60.44832 25.29832 2342 ft 165 kts 313°
2026-05-06 19:44 60.45369 25.27911 2277 ft 158 kts 288°
2026-05-06 19:44 60.45370 25.25681 2277 ft 161 kts 255°
2026-05-06 19:45 60.44765 25.23765 2291 ft 162 kts 231°
2026-05-06 19:45 60.44031 25.22170 2290 ft 146 kts 228°
2026-05-06 19:45 60.43381 25.20754 2262 ft 131 kts 230°
2026-05-06 19:45 60.42777 25.19410 2290 ft 127 kts 229°
2026-05-06 19:46 60.42184 25.18084 2282 ft 126 kts 229°
2026-05-06 19:46 60.41596 25.16771 2286 ft 126 kts 230°
2026-05-06 19:46 60.41006 25.15458 2289 ft 125 kts 229°
2026-05-06 19:46 60.40421 25.14160 2288 ft 125 kts 230°
2026-05-06 19:47 60.39827 25.12840 2212 ft 128 kts 229°
2026-05-06 19:47 60.39235 25.11531 2043 ft 126 kts 229°
2026-05-06 19:47 60.38647 25.10231 1867 ft 125 kts 229°
2026-05-06 19:47 60.38058 25.08927 1702 ft 125 kts 229°
2026-05-06 19:48 60.37474 25.07634 1515 ft 124 kts 229°
2026-05-06 19:48 60.36891 25.06346 1351 ft 124 kts 229°
2026-05-06 19:48 60.36311 25.05064 1182 ft 123 kts 229°
2026-05-06 19:48 60.35731 25.03781 1011 ft 123 kts 229°
2026-05-06 19:49 60.35179 25.02560 977 ft 126 kts 229°
2026-05-06 19:49 60.34530 25.01124 1786 ft 158 kts 229°
2026-05-06 19:49 60.33682 24.99245 2236 ft 197 kts 229°
2026-05-06 19:49 60.32752 24.97191 2380 ft 203 kts 229°
2026-05-06 19:50 60.31731 24.94958 2345 ft 232 kts 228°
2026-05-06 19:50 60.30552 24.92509 2256 ft 252 kts 224°
2026-05-06 19:50 60.29064 24.90589 2142 ft 255 kts 200°
2026-05-06 19:50 60.27313 24.90270 2036 ft 256 kts 172°
2026-05-06 19:51 60.25694 24.91661 1983 ft 257 kts 144°
2026-05-06 19:51 60.24429 24.94188 1999 ft 259 kts 131°
2026-05-06 19:51 60.23270 24.96970 1980 ft 259 kts 130°
2026-05-06 19:51 60.22117 24.99783 1977 ft 259 kts 130°
2026-05-06 19:52 60.20986 25.02541 2002 ft 258 kts 130°
2026-05-06 19:52 60.19828 25.05359 1978 ft 258 kts 130°
2026-05-06 19:52 60.18686 25.08145 2002 ft 258 kts 130°
2026-05-06 19:52 60.17559 25.10900 1980 ft 259 kts 129°
2026-05-06 19:53 60.16648 25.14008 1976 ft 260 kts 111°
2026-05-06 19:53 60.16385 25.17586 1998 ft 260 kts 84°
2026-05-06 19:53 60.16987 25.20923 1980 ft 258 kts 54°
2026-05-06 19:53 60.18372 25.23151 2001 ft 256 kts 24°
2026-05-06 19:54 60.19925 25.24703 1998 ft 241 kts 34°
2026-05-06 19:54 60.21220 25.26660 2004 ft 226 kts 35°
2026-05-06 19:54 60.22495 25.28485 1995 ft 225 kts 33°
2026-05-06 19:54 60.23809 25.30204 1975 ft 226 kts 30°
2026-05-06 19:55 60.25193 25.31720 1987 ft 225 kts 21°
2026-05-06 19:55 60.26681 25.32676 1988 ft 225 kts 13°
2026-05-06 19:55 60.28231 25.33360 1971 ft 236 kts 10°
2026-05-06 19:55 60.29900 25.34057 1967 ft 252 kts 10°
2026-05-06 19:56 60.31622 25.34769 1975 ft 256 kts 10°
2026-05-06 19:56 60.33384 25.35496 1967 ft 255 kts 10°
2026-05-06 19:56 60.35097 25.36197 1989 ft 255 kts 10°
2026-05-06 19:56 60.36835 25.36911 1975 ft 255 kts 10°
2026-05-06 19:57 60.38569 25.37628 1973 ft 254 kts 10°
2026-05-06 19:57 60.40317 25.38300 1965 ft 254 kts
2026-05-06 19:57 60.42038 25.37892 1984 ft 249 kts 339°
2026-05-06 19:57 60.43460 25.35966 1961 ft 249 kts 313°
2026-05-06 19:58 60.44348 25.32964 1981 ft 250 kts 296°
2026-05-06 19:58 60.45210 25.29942 1989 ft 250 kts 306°
2026-05-06 19:58 60.46183 25.27029 1968 ft 250 kts 297°
2026-05-06 19:58 60.46540 25.23729 1995 ft 230 kts 270°
2026-05-06 19:59 60.46347 25.20604 2000 ft 222 kts 261°
2026-05-06 19:59 60.45835 25.17658 1996 ft 225 kts 238°
2026-05-06 19:59 60.44662 25.15570 1996 ft 227 kts 209°
2026-05-06 19:59 60.43208 25.14335 1983 ft 225 kts 201°
2026-05-06 20:00 60.41741 25.13296 1994 ft 223 kts 200°
2026-05-06 20:00 60.40273 25.12272 1995 ft 223 kts 200°
2026-05-06 20:00 60.38884 25.10908 1943 ft 222 kts 217°
2026-05-06 20:00 60.37809 25.08702 1683 ft 219 kts 232°
2026-05-06 20:01 60.36901 25.06367 1366 ft 203 kts 232°
2026-05-06 20:01 60.35997 25.04307 1089 ft 188 kts 226°
2026-05-06 20:01 60.35141 25.02502 840 ft 173 kts 231°
2026-05-06 20:01 60.34367 25.00754 601 ft 161 kts 228°
2026-05-06 20:02 60.33628 24.99140 381 ft 151 kts 228°
2026-05-06 20:02 60.32947 24.97635 219 ft 139 kts 228°
2026-05-06 20:02 60.32361 24.96321 171 ft 97 kts 228°
2026-05-06 20:02 60.32108 24.95762 168 ft 11 kts 222°
2026-05-06 20:03 60.32011 24.95674 168 ft 38 kts 198°
2026-05-06 20:03 60.31916 24.95620 166 ft 7 kts 194°
2026-05-06 20:03 60.31865 24.95607 166 ft 0 kts 178°
2026-05-06 20:03 60.31820 24.95611 166 ft 17 kts 180°
2026-05-06 20:04 60.31760 24.95582 166 ft 0 kts 199°
2026-05-06 20:04 60.31743 24.95574 166 ft 9 kts 193°
2026-05-06 20:04 60.31719 24.95569 166 ft 3 kts 182°
2026-05-06 20:04 60.31691 24.95585 166 ft 9 kts 161°
2026-05-06 20:05 60.31675 24.95603 166 ft 0 kts 149°
2026-05-06 20:05 60.31648 24.95633 167 ft 0 kts 155°
2026-05-06 20:05 60.31613 24.95644 167 ft 2 kts 188°
2026-05-06 20:05 60.31600 24.95636 167 ft 1 kts 201°
2026-05-06 20:06 60.31588 24.95621 167 ft 4 kts 210°
2026-05-06 20:06 60.31562 24.95583 166 ft 0 kts 218°
2026-05-06 20:06 60.31550 24.95564 166 ft 6 kts 214°
2026-05-06 20:06 60.31517 24.95555 166 ft 3 kts 169°
2026-05-06 20:07 60.31499 24.95568 167 ft 3 kts 158°
2026-05-06 20:07 60.31490 24.95579 167 ft 1 kts 150°
2026-05-06 20:07 60.31483 24.95588 167 ft 2 kts 147°
2026-05-06 20:07 60.31474 24.95601 167 ft 0 kts 144°
2026-05-06 20:08 60.31469 24.95609 167 ft 1 kts 141°
2026-05-06 20:08 60.31464 24.95617 167 ft 0 kts 139°
2026-05-06 20:08 60.31460 24.95624 167 ft 2 kts 139°
2026-05-06 20:08 60.31455 24.95633 167 ft 0 kts 139°
2026-05-06 20:14 60.31456 24.95633 167 ft 0 kts 139°